Regional Weather Roundup
Issued by NWS Little Rock, AR

Home | Current Version | Previous Version | Graphics & Text | Print | Product List | Glossary On
Versions: 1 2 3 4 5 6 7 8 9 10 11 12 13 14 15 16 17 18 19 20 21 22 23 24 25 26 27
000
ASUS44 KLZK 240505
RWRLZK

WEATHER ROUNDUP FOR ARKANSAS
NATIONAL WEATHER SERVICE LITTLE ROCK AR
1200 AM CDT FRI OCT 24 2014

NOTE: "FAIR" INDICATES FEW OR NO CLOUDS BELOW 12,000 FEET WITH NO
SIGNIFICANT WEATHER AND/OR OBSTRUCTIONS TO VISIBILITY.

ARZ001-003-010-029-240600-
NORTHWEST ARKANSAS

CITY           SKY/WX    TMP DP  RH WIND       PRES   REMARKS
FAYETTEVILLE   CLEAR     51  51 100 E3        30.15R
FORT SMITH     CLEAR     58  53  84 NE5       30.13F
HARRISON       CLEAR     51  51 100 W5        30.14S
BENTONVILLE    CLEAR     54  50  87 CALM      30.14F
ROGERS         CLEAR     53  51  93 CALM      30.15S
SILOAM SPGS    CLEAR     54  46  76 CALM      30.15S
HIGHFILL       FAIR      52  51  97 CALM      30.13F FOG
$$

ARZ004-005-016-240600-
NORTH CENTRAL ARKANSAS

CITY           SKY/WX    TMP DP  RH WIND       PRES   REMARKS
BATESVILLE     CLEAR     48  46  93 CALM      30.15R
FLIPPIN        PTCLDY    50  45  81 CALM      30.13F
MTN HOME       CLOUDY    51  50  96 CALM      30.13S
$$

ARZ040-041-240600-
WEST CENTRAL ARKANSAS

CITY           SKY/WX    TMP DP  RH WIND       PRES   REMARKS
MENA           CLEAR     52  52 100 CALM      30.16S
MOUNT IDA      CLEAR     51  50  96 CALM      30.12F
$$

ARZ009-017-025-026-028-240600-
NORTHEAST ARKANSAS

CITY           SKY/WX    TMP DP  RH WIND       PRES   REMARKS
CORNING        FAIR      46  46 100 SW5       30.15R FOG
JONESBORO      CLEAR     46  45  96 CALM      30.14F
NEWPORT        CLEAR     48  48 100 SW3       30.16R
WALNUT RIDGE   CLEAR     48  43  81 CALM      30.15R
BLYTHEVILLE    CLEAR     48  46  93 W5        30.14S
$$

ARZ022-023-033-042-044-240600-
CENTRAL ARKANSAS

CITY           SKY/WX    TMP DP  RH WIND       PRES   REMARKS
LITTLE ROCK    PTCLDY    53  48  83 CALM      30.15S
N LITTLE ROCK  PTCLDY    52  49  90 S3        30.15S
JACKSONVILLE   CLEAR     50  49  97 CALM      30.14S
SEARCY         CLEAR     47  47 100 CALM      30.16S
HOT SPRINGS    CLEAR     52  49  89 CALM      30.15F
RUSSELLVILLE   CLEAR     50  47  89 CALM      30.15R
$$

ARZ036-240600-
EAST ARKANSAS

CITY           SKY/WX    TMP DP  RH WIND       PRES   REMARKS
WEST MEMPHIS   PTCLDY    51  48  89 CALM      30.13F
$$

ARZ050-053-066-070-073-240600-
SOUTHWEST ARKANSAS

CITY           SKY/WX    TMP DP  RH WIND       PRES   REMARKS
ARKADELPHIA    FAIR      51  51 100 CALM      30.15F
CAMDEN         CLEAR     46  45  93 CALM      30.15R
TEXARKANA      CLEAR     55  50  83 CALM      30.14F
EL DORADO      CLEAR     47  45  93 CALM      30.14F
DE QUEEN       CLEAR     53  52  96 CALM      30.13S
$$

ARZ056-057-069-240600-
SOUTHEAST ARKANSAS

CITY           SKY/WX    TMP DP  RH WIND       PRES   REMARKS
PINE BLUFF     PTCLDY    48  46  93 CALM      30.14F
STUTTGART      MOCLDY    54  46  76 CALM      30.15S
MONTICELLO     CLEAR     46  44  93 CALM      30.13F

$$





USA.gov is the U.S. government's official web portal to all federal, state and local government web resources and services.